[[{"header":{"parameterUnit":"m.s-1","parameterCategory":1,"la1":30.2991,"la2":30.254,"lo1":-89.0895,"lo2":-89.0444,"dy":0.0017,"dx":0.0017,"nx":28,"ny":28,"refTime":"2025-05-26T09:00:00:Z","depth":0,"parameterNumber":2,"parameterNumberName":"U-component_of_WINDS"},"data":[0,0,0,0,0,0,0,0,0,0,0,0,0,0,0,0,0,0,0,0,0,0,0,0,0,0,0,0,0,0,0,0,0,0,0,0,0,0,0,0,0,0,0,0,0,0,0,0,0,0,0,0,0,0,0,0,0,0,1.6126,1.6127,0,1.6255,1.6257,1.6258,1.6279,1.6278,1.6277,1.6276,1.6413,1.6417,1.6422,0,0,0,0,0,0,0,0,0,0,0,0,0,1.5899,1.5903,1.6126,1.6128,1.6129,1.6255,1.6257,1.6259,1.6279,1.6278,1.6276,1.6275,1.6411,1.6417,1.6422,0,0,0,0,0,0,0,0,0,0,0,0,0,1.601,1.5904,1.6126,1.6154,1.6158,1.6255,1.6257,1.6259,1.628,1.6278,1.6276,1.6274,1.6409,1.6416,1.6423,1.6501,0,0,1.6445,1.6448,0,0,0,0,0,0,0,0,1.6003,1.6018,1.6149,1.6153,1.6157,1.6249,1.6227,1.6341,1.628,1.6234,1.6276,1.6274,1.636,1.6371,1.6399,1.6508,1.6514,1.6445,1.645,1.6453,1.6455,0,0,0,0,0,0,0,1.5996,1.6013,1.6177,1.615,1.6156,1.6162,1.6176,1.6249,1.6305,1.6238,1.6239,1.6254,1.6362,1.6392,1.6403,1.6516,1.6445,1.6451,1.6456,1.6459,1.6692,1.6694,0,0,0,0,0,0,1.5982,1.6006,1.6173,1.6181,1.6074,1.6167,1.6183,1.6222,1.6304,1.6315,1.6255,1.6255,1.6381,1.6394,1.6407,1.6503,1.6453,1.6459,1.6463,1.669,1.6693,1.6695,0,0,0,0,0,0,1.5977,1.5997,1.6168,1.6094,1.6116,1.6173,1.6216,1.6225,1.6255,1.6318,1.6328,1.6276,1.638,1.6397,1.6477,1.6508,1.6462,1.6469,1.6688,1.6691,1.6694,1.6695,0,0,0,0,0,0,1.5971,1.5995,1.6025,1.6095,1.612,1.6235,1.6218,1.6229,1.6267,1.6267,1.634,1.635,1.638,1.6466,1.6484,1.6517,1.6474,1.6686,1.6689,1.6693,1.6692,1.6697,1.6702,0,0,0,0,0,1.5963,1.6022,1.6027,1.6047,1.6159,1.6236,1.6251,1.6283,1.6269,1.63,1.634,1.6348,1.6501,1.6474,1.6494,1.653,1.6684,1.6688,1.6693,1.669,1.6696,1.6702,0,0,0,0,0,0,1.5957,1.6032,1.6038,1.6121,1.6172,1.624,1.628,1.6289,1.6347,1.6344,1.6383,1.6399,1.6476,1.6511,1.6479,1.6609,1.6592,1.66,1.6583,1.6589,1.6594,1.6584,1.648,0,0,0,0,0,1.5965,1.6021,1.6083,1.6151,1.6176,1.6223,1.6258,1.6278,1.6333,1.6355,1.6401,1.6455,1.6515,1.6554,1.6614,1.6697,1.6713,1.6732,1.6736,1.674,1.6747,1.6792,1.68,1.6709,1.6709,1.6709,0,0,1.5983,1.603,1.6064,1.6151,1.6193,1.625,1.6241,1.6303,1.6346,1.6365,1.6442,1.6477,1.654,1.6621,1.666,1.6653,1.6775,1.6746,1.6748,1.6753,1.6797,1.6806,1.6813,1.6712,1.6712,1.6711,0,0,1.6044,1.6086,1.6146,1.6187,1.6249,1.628,1.6294,1.636,1.6384,1.6461,1.6476,1.6528,1.6632,1.6675,1.671,1.6785,1.6794,1.6804,1.6829,1.6872,1.6879,1.6885,1.6911,1.692,1.681,1.681,1.681,0,1.6059,1.6145,1.6176,1.6236,1.6273,1.6291,1.6351,1.639,1.647,1.6495,1.6486,1.6614,1.6658,1.6749,1.6766,1.6795,1.6812,1.6795,1.6875,1.6882,1.6889,1.6913,1.6923,1.6811,1.6811,1.6811,1.6811,0,1.6159,1.6218,1.6259,1.6332,1.6374,1.6434,1.6474,1.6513,1.6529,1.656,1.6638,1.6691,1.676,1.6783,1.68,1.6875,1.6869,1.6867,1.6851,1.6897,1.6921,1.6931,1.6812,1.6812,1.6811,1.6811,0,0,1.6222,1.6309,1.6323,1.6356,1.6425,1.6472,1.6532,1.6597,1.6629,1.6683,1.6734,1.682,1.6818,1.6858,1.688,1.6918,1.6972,1.6912,1.6914,1.692,1.7056,1.7056,1.7067,1.6978,1.698,1.6981,1.705,0,1.629,1.6397,1.6425,1.6516,1.657,1.6587,1.6639,1.6687,1.6718,1.6769,1.6803,1.6863,1.6856,1.688,1.6918,1.6957,1.6999,1.6952,1.7026,1.7028,1.7009,1.7079,1.7081,1.7143,1.706,1.7062,1.7063,0,1.6385,1.6437,1.6533,1.6592,1.6616,1.6662,1.6723,1.6772,1.6827,1.6846,1.6889,1.6907,1.6971,1.6951,1.7038,1.7005,1.7037,1.706,1.7064,1.7072,1.7048,1.7088,1.7164,1.7173,1.7078,1.7077,1.7076,0,1.6419,1.6514,1.6583,1.661,1.6682,1.6714,1.6745,1.6798,1.6834,1.6888,1.6912,1.6973,1.7007,1.7054,1.7087,1.707,1.7172,1.7155,1.7189,1.7188,1.721,1.7208,1.7291,1.7232,1.7232,1.7231,1.7231,0,1.6492,1.655,1.6598,1.6641,1.6705,1.6737,1.68,1.6833,1.6879,1.6928,1.6947,1.6992,1.7034,1.7086,1.7113,1.718,1.7196,1.7213,1.7219,1.7211,1.7208,1.7232,1.7228,1.7234,1.7233,1.7233,1.7233,0,1.6541,1.6577,1.6652,1.6712,1.6729,1.6773,1.6826,1.6867,1.6897,1.6959,1.6975,1.7023,1.7085,1.7122,1.7201,1.7219,1.7293,1.7298,1.7274,1.7276,1.7308,1.7304,1.7409,1.7424,1.7355,1.7356,1.7356,0,1.6585,1.6629,1.6693,1.6726,1.6757,1.6811,1.6848,1.6881,1.6918,1.6982,1.7016,1.7077,1.7129,1.7225,1.7268,1.7328,1.7334,1.7366,1.7343,1.7332,1.7333,1.7329,1.7333,1.737,1.7371,1.7371,1.7372,0,1.6659,1.6673,1.6725,1.6781,1.6824,1.6871,1.6917,1.6944,1.6985,1.7026,1.7087,1.7127,1.7205,1.7266,1.7329,1.7362,1.7374,1.7378,1.7389,1.7381,1.7364,1.7372,1.7283,1.7376,1.7375,1.7375,1.7375,1.7375,1.6706,1.6745,1.6795,1.6851,1.6889,1.6932,1.6973,1.7007,1.7058,1.7123,1.714,1.7204,1.7256,1.7341,1.7375,1.7426,1.7422,1.7438,1.7442,1.7445,1.7445,1.7356,1.7438,1.7438,1.7438,1.7438,1.7438,0,1.678,1.6812,1.6863,1.6926,1.697,1.6975,1.7026,1.7063,1.7118,1.7165,1.7214,1.7283,1.7342,1.7388,1.7448,1.748,1.7486,1.7494,1.7492,1.7499,1.7446,1.743,1.7488,1.7488,1.7488,1.7488,1.7488,1.7488,1.6823,1.6888,1.6908,1.6992,1.7025,1.7086,1.7114,1.7154,1.7191,1.7267,1.7315,1.7343,1.739,1.7453,1.7507,1.7519,1.754,1.7546,1.7559,1.7509,1.7503,1.7498,1.7483,1.7551,1.7551,1.7608,1.7609,1.7609]},{"header":{"parameterUnit":"m.s-1","parameterCategory":1,"la1":30.2991,"la2":30.254,"lo1":-89.0895,"lo2":-89.0444,"dy":0.0017,"dx":0.0017,"nx":28,"ny":28,"refTime":"2025-05-26T09:00:00:Z","depth":0,"parameterNumber":3,"parameterNumberName":"V-component_of_WINDS"},"data":[0,0,0,0,0,0,0,0,0,0,0,0,0,0,0,0,0,0,0,0,0,0,0,0,0,0,0,0,0,0,0,0,0,0,0,0,0,0,0,0,0,0,0,0,0,0,0,0,0,0,0,0,0,0,0,0,0,0,2.3954,2.3954,0,2.3998,2.3998,2.3999,2.3946,2.3944,2.3943,2.3941,2.3985,2.3988,2.3991,0,0,0,0,0,0,0,0,0,0,0,0,0,2.3822,2.3825,2.3954,2.3954,2.3955,2.3998,2.3998,2.3999,2.3947,2.3944,2.3942,2.394,2.3984,2.3988,2.3992,0,0,0,0,0,0,0,0,0,0,0,0,0,2.3874,2.3826,2.3954,2.3934,2.3933,2.3998,2.3998,2.3999,2.3947,2.3944,2.3941,2.3939,2.3983,2.3988,2.3992,2.4078,0,0,2.4006,2.4008,0,0,0,0,0,0,0,0,2.3871,2.3879,2.3936,2.3936,2.3934,2.3964,2.3968,2.4026,2.3948,2.3942,2.3941,2.3937,2.3981,2.3985,2.4,2.4081,2.4082,2.4006,2.4009,2.4011,2.4012,0,0,0,0,0,0,0,2.3868,2.3877,2.3971,2.3937,2.3936,2.3922,2.3926,2.3979,2.3977,2.3942,2.3938,2.3944,2.3979,2.3996,2.4,2.4083,2.4006,2.401,2.4013,2.4015,2.4234,2.4237,0,0,0,0,0,0,2.3867,2.3874,2.397,2.3973,2.3895,2.3927,2.3932,2.3957,2.3976,2.3976,2.3947,2.3942,2.3989,2.3995,2.4002,2.4103,2.4011,2.4015,2.4018,2.4231,2.4235,2.4238,0,0,0,0,0,0,2.3864,2.3876,2.3968,2.3922,2.3933,2.3932,2.3961,2.396,2.3976,2.398,2.3979,2.3964,2.3987,2.3995,2.4059,2.4104,2.4017,2.4021,2.4228,2.4232,2.4237,2.4306,0,0,0,0,0,0,2.3861,2.3875,2.3909,2.3924,2.3936,2.4026,2.3964,2.3963,2.3984,2.3977,2.3996,2.3996,2.3985,2.4053,2.4064,2.4108,2.4025,2.4224,2.423,2.4235,2.43,2.4313,2.4324,0,0,0,0,0,2.3856,2.3927,2.3911,2.3923,2.3978,2.4029,2.4035,2.4022,2.3988,2.4021,2.4023,2.3995,2.4097,2.406,2.4072,2.4118,2.4221,2.4228,2.4235,2.4295,2.431,2.4324,0,0,0,0,0,0,2.3918,2.3929,2.3911,2.3989,2.4008,2.402,2.4061,2.4039,2.4069,2.4062,2.4044,2.4049,2.4116,2.4123,2.4082,2.4202,2.4153,2.4163,2.4195,2.4209,2.4221,2.4218,2.4028,0,0,0,0,0,2.394,2.3981,2.3988,2.4056,2.4067,2.4062,2.4084,2.4072,2.4091,2.4099,2.4106,2.4126,2.4161,2.4186,2.4219,2.4301,2.4303,2.4338,2.435,2.436,2.4369,2.441,2.4426,2.4262,2.4262,2.4261,0,0,2.3988,2.3999,2.4026,2.4069,2.4082,2.4124,2.407,2.4117,2.4147,2.4106,2.4167,2.4172,2.4193,2.4265,2.4297,2.4273,2.4414,2.4369,2.4377,2.438,2.4419,2.4435,2.4448,2.4266,2.4266,2.4265,0,0,2.4095,2.4108,2.4165,2.418,2.42,2.4197,2.421,2.4225,2.4227,2.4287,2.4257,2.4292,2.4355,2.437,2.4386,2.4497,2.4472,2.4508,2.457,2.4611,2.4624,2.4635,2.4674,2.4688,2.4517,2.4517,2.4517,0,2.4151,2.4214,2.4197,2.4246,2.4265,2.4229,2.4286,2.4301,2.4332,2.4346,2.4318,2.4395,2.4406,2.4481,2.4507,2.4522,2.4536,2.4506,2.4623,2.4635,2.4645,2.4681,2.4696,2.4521,2.4521,2.452,2.452,0,2.4281,2.4324,2.4368,2.4398,2.4422,2.4475,2.4466,2.4492,2.4477,2.4476,2.4536,2.4548,2.4583,2.4599,2.4586,2.4672,2.4656,2.4626,2.4577,2.4665,2.4699,2.4713,2.4527,2.4526,2.4524,2.4523,0,0,2.443,2.4449,2.4465,2.4477,2.4497,2.453,2.458,2.4613,2.4635,2.4657,2.4698,2.4751,2.4723,2.4741,2.4729,2.4765,2.485,2.473,2.473,2.4751,2.4943,2.4965,2.4982,2.4833,2.4836,2.4838,2.4941,0,2.4536,2.4624,2.461,2.4694,2.4733,2.4698,2.4741,2.4757,2.4757,2.4789,2.4789,2.4826,2.4787,2.4797,2.4831,2.4832,2.4888,2.4825,2.487,2.4872,2.4866,2.5,2.5024,2.5121,2.4955,2.4957,2.4958,0,2.4673,2.4699,2.4787,2.4799,2.4814,2.4854,2.4882,2.4914,2.4931,2.4928,2.4947,2.4927,2.4976,2.4926,2.4992,2.4949,2.4966,2.4969,2.4973,2.4976,2.4921,2.5007,2.5152,2.5166,2.4979,2.4978,2.4976,0,2.4772,2.4829,2.4888,2.49,2.4915,2.4944,2.4951,2.4965,2.4985,2.501,2.5022,2.5052,2.5069,2.5092,2.508,2.5045,2.5148,2.5097,2.5146,2.5147,2.517,2.5169,2.532,2.5182,2.5182,2.5182,2.5181,0,2.4892,2.4947,2.4933,2.4969,2.5029,2.5012,2.5071,2.5074,2.5087,2.5122,2.5094,2.5128,2.5111,2.5143,2.5134,2.519,2.5198,2.5196,2.5193,2.5198,2.5199,2.521,2.5202,2.5185,2.5185,2.5184,2.5183,0,2.5013,2.5006,2.5068,2.5076,2.508,2.5123,2.513,2.5164,2.516,2.5206,2.5216,2.5211,2.5247,2.5238,2.5278,2.5271,2.5341,2.533,2.5336,2.5333,2.5382,2.5377,2.5545,2.5566,2.5415,2.5417,2.5418,0,2.509,2.5132,2.5144,2.5166,2.5175,2.5211,2.5231,2.5215,2.5237,2.5258,2.5289,2.5323,2.5349,2.5409,2.5408,2.5438,2.5427,2.5484,2.5431,2.5435,2.5427,2.5424,2.5428,2.5494,2.5496,2.5497,2.5499,0,2.5228,2.5222,2.5252,2.5281,2.5306,2.5328,2.5347,2.5366,2.5351,2.5377,2.5414,2.5434,2.5474,2.5508,2.5535,2.5541,2.5517,2.5515,2.5528,2.5534,2.5535,2.5534,2.5363,2.5511,2.551,2.5509,2.5508,2.5508,2.5329,2.5363,2.5377,2.5411,2.5423,2.5442,2.5473,2.5473,2.5504,2.5535,2.5523,2.5565,2.5579,2.5612,2.5622,2.5654,2.5632,2.5651,2.5656,2.5661,2.5666,2.553,2.5659,2.5659,2.5658,2.5658,2.5658,0,2.5464,2.5471,2.5502,2.553,2.5556,2.5531,2.555,2.5574,2.5611,2.5626,2.5652,2.5693,2.5725,2.5726,2.5756,2.5781,2.5771,2.5789,2.5787,2.5789,2.5685,2.567,2.5797,2.5797,2.5797,2.5797,2.5797,2.5797,2.5538,2.5594,2.5589,2.565,2.5656,2.5697,2.571,2.5726,2.5738,2.5785,2.5811,2.5812,2.5821,2.5851,2.5878,2.5878,2.5889,2.5912,2.5908,2.581,2.5796,2.5783,2.577,2.5915,2.5915,2.6009,2.601,2.6011]}]]